Meteo Giornale » Osservazioni meteo Slovenia » Cerklje

ore: 02:00 - Osservazioni Meteo Cerklje
Lat. 45° 54' N Lon. 15° 31' E Alt. 155 metri s.l.m.

sereno

16 °C

Sereno

Temp. 24 Ore

16 °C

29 °C

Nord

0 Km/h

Dew point 13 °C

Umidità 82 %

Visibilità  10 Km

Il sole sorge alle ore 06:20

Il sole tramonta alle ore 19:35

Data e Ora Cielo e Fenomeni T °C DP °C Um. % Pres. hPa Vis. km Vento km/h
Oggi h: 02:00 sereno Sereno 16 13 82 1020 10 N 0
Oggi h: 01:30 sereno Sereno 16 13 82 1020 10 N 1.8
Oggi h: 01:00 sereno Sereno 17 13 77 1020 10 N 0
Oggi h: 00:30 sereno Sereno 18 13 72 1020 10 N 3.7
Oggi h: 00:00 sereno Sereno 18 13 72 1020 10 N 1.8
Ieri h: 23:30 sereno Sereno 19 13 68 1020 10 N 1.8
Ieri h: 23:00 sereno Sereno 19 13 68 1020 10 N 1.8
Ieri h: 22:30 sereno Sereno 19 13 68 1020 10 N 0
Ieri h: 22:00 sereno Sereno 20 13 64 1020 10 N 5.5
Ieri h: 21:30 sereno Sereno 21 13 60 1020 10 N 5.5
Ieri h: 21:00 sereno Sereno 22 11 49 1020 10 N 3.7
Ieri h: 20:30 sereno Sereno 23 11 46 1019 10 E 7.4
Ieri h: 20:00 sereno Sereno 24 11 43 1019 10 E 7.4
Ieri h: 19:30 sereno Sereno 25 11 41 1019 10 E/SE 7.4
Ieri h: 19:00 sereno Sereno 27 10 34 1019 10 E/SE 11.1
Ieri h: 18:30 sereno Sereno 28 9 30 1019 10 E/SE 13
Ieri h: 18:00 sereno Sereno 29 9 28 1019 10 SE 14.8
Ieri h: 17:30 sereno Sereno 29 9 28 1019 10 E/SE 11.1
Ieri h: 17:00 sereno Sereno 29 10 30 1019 10 E/SE 11.1
Ieri h: 16:30 sereno Sereno 29 9 28 1019 10 E 13
Ieri h: 16:00 sereno Sereno 29 10 30 1019 10 E/SE 14.8
Ieri h: 15:30 sereno Sereno 29 10 30 1019 10 E 16.7
Ieri h: 15:00 sereno Sereno 29 10 30 1020 10 E 14.8
Ieri h: 14:30 sereno Sereno 29 9 28 1020 10 E/SE 16.7
Ieri h: 14:00 sereno Sereno 29 10 30 1020 10 E 18.5
Ieri h: 13:30 sereno Sereno 28 11 34 1020 10 E 16.7
Ieri h: 13:00 sereno Sereno 28 12 37 1021 10 E 11.1
Ieri h: 12:30 sereno Sereno 27 12 39 1021 10 E/NE 11.1
Ieri h: 12:00 sereno Sereno 26 13 44 1021 10 E/NE 14.8
Ieri h: 11:30 poco_nuvoloso Poco Nuvoloso 26 13 44 1021 10 E/NE 9.3
Ieri h: 11:00 poco_nuvoloso Poco Nuvoloso 25 14 50 1021 10 E 7.4
Ieri h: 10:30 sereno Sereno 25 14 50 1021 10 N 5.5
Ieri h: 10:00 sereno Sereno 23 14 56 1021 10 N 3.7
Ieri h: 09:30 sereno Sereno 23 14 56 1021 10 N 3.7
Ieri h: 09:00 sereno Sereno 22 14 60 1021 10 N 1.8
Ieri h: 08:30 sereno Sereno 22 14 60 1021 10 N 3.7
Ieri h: 08:00 sereno Sereno 21 14 64 1021 10 N 3.7
Ieri h: 07:30 sereno Sereno 20 14 68 1021 10 N 3.7
Ieri h: 07:00 sereno Sereno 20 14 68 1020 10 N 1.8
Ieri h: 06:30 sereno Sereno 20 14 68 1020 10 N 3.7
Ieri h: 06:00 sereno Sereno 20 14 68 1020 10 N 3.7
Ieri h: 05:30 sereno Sereno 21 14 64 1020 10 N 3.7
Ieri h: 05:00 sereno Sereno 21 13 60 1020 10 SE 7.4
Ieri h: 04:30 sereno Sereno 21 13 60 1020 10 N 5.5
Ieri h: 04:00 sereno Sereno 21 13 60 1020 10 E 13
Ieri h: 03:30 sereno Sereno 21 13 60 1019 10 SE 9.3
Ieri h: 03:00 sereno Sereno 21 13 60 1019 10 SE 9.3